Flag for Botswana Weather past 2 weeks in Molepolole, Botswana

Now
66 °F

Clear.


Feels Like: 66 °F
Forecast: 42 / 70 °F
Wind: 7 mph from East

Location: Seretse Khama International Airport

Current Time: Jul 3, 2015 at 6:26:34 PM

Latest Report: Jul 3, 2015 at 6:00 PM


Visibility: 10 mi

Pressure: 30.33 "Hg (26.53 "Hg at 1145m altitude)

Humidity: 32%

Dew point: 36 °F

Location of MolepololeLocation

Historic Weather in Molepolole — Graph

°F

Molepolole temperature yesterday

Maximum temperature yesterday: 72 °F (at 1:00 PM)
Minimum temperature yesterday: 43 °F (at 5:00 AM)
Average temperature yesterday: 58 °F

Past Weeks' High & Low Weather Summary

 TemperatureHumidityPressure
High79 °F (Jun 25, 3:00 PM)100% (Jun 28, 5:00 AM)30.51 "Hg (Jun 28, 5:00 AM)
Low34 °F (Jun 19, 6:00 AM)12% (Jun 25, 3:00 PM)30.12 "Hg (Jun 25, 3:00 PM)
Average57 °F48%30.31 "Hg
* Reported Jun 18 5:00 PM — Jul 3 5:00 PM, Molepolole, Weather by CustomWeather, © 2015

Note: Actual official high and low records may vary slightly from our data, if they occured in-between our weather recording intervals... More about our weather records

Advertising

Molepolole weather history for previous 24 hours

 ConditionsComfort  
Time TempWeatherWind HumidityBarometerVisibility
5:00 PM
Fri, Jul 3
70 °FClear.7 mph31%30.30 "Hg10 mi
4:00 PM72 °FPassing clouds.8 mph27%30.30 "HgN/A
3:00 PM72 °FPassing clouds.8 mph27%30.30 "HgN/A
2:00 PM72 °FPassing clouds.10 mph29%30.33 "HgN/A
1:00 PM70 °FSunny.5 mph33%30.39 "Hg10 mi
12:00 PM68 °FPassing clouds.6 mph35%30.42 "HgN/A
11:00 AM64 °FPassing clouds.5 mph40%30.45 "HgN/A
10:00 AM61 °FPassing clouds.3 mph45%30.45 "HgN/A
9:00 AM57 °FSunny.5 mph51%30.42 "Hg10 mi
8:00 AM50 °FSunny.8 mph62%30.42 "Hg10 mi
7:00 AM46 °FSunny.10 mph66%30.39 "Hg10 mi
6:00 AM48 °FSunny.7 mph82%30.39 "Hg10 mi
5:00 AM46 °FPassing clouds.8 mph62%30.36 "HgN/A
4:00 AM46 °FClear.7 mph62%30.36 "Hg10 mi
3:00 AM46 °FPassing clouds.8 mph62%30.36 "HgN/A
2:00 AM48 °FClear.2 mph62%30.36 "Hg6 mi
1:00 AM50 °FClear.3 mph58%30.36 "Hg10 mi
12:00 AM50 °FClear.3 mph54%30.36 "Hg10 mi
11:00 PM
Thu, Jul 2
52 °FClear.2 mph50%30.39 "Hg10 mi
10:00 PM54 °FClear.2 mph51%30.39 "Hg10 mi
9:00 PM57 °FPassing clouds.5 mph44%30.39 "HgN/A
8:00 PM61 °FClear.5 mph39%30.36 "Hg10 mi
7:00 PM63 °FClear.7 mph37%30.36 "Hg10 mi
6:00 PM66 °FPassing clouds.8 mph32%30.33 "HgN/A
Weather by CustomWeather, © 2015

See weather overviewHow to use our weather pages